CAPE
96 96 58 15 3 0 0 7 7 15 0 0 0 0 0 0 0 0 0 0 0 0 11 65 108 319 470 682 680 168 28 28 103 79 53 98 143 135 118 104 75 29 0
263 196 150 81 44 27 11 6 0 5 1 0 0 0 0 0 1 0 0 0 0 0 11 58 110 256 459 693 373 41 36 17 32 79 58 84 114 96 150 141 66 35 14
299 278 204 168 86 29 19 3 1 0 0 0 0 0 0 2 0 0 0 1 0 0 17 80 179 418 466 566 288 48 23 28 42 33 17 21 7 13 74 166 145 53 18
0 6 65 110 129 77 11 0 5 0 0 0 0 1 3 4 5 27 57 54 53 33 60 158 371 484 434 421 209 94 21 0 2 18 15 7 9 14 3 61 143 224 136
165 49 70 20 2 0 11 0 0 0 0 0 0 6 8 35 68 60 58 95 118 143 157 160 254 384 426 408 214 139 14 0 15 32 3 3 2 10 21 1 37 82 146
1 172 344 508 476 374 47 0 0 0 0 0 0 10 30 53 52 77 77 24 21 46 43 121 153 154 120 247 213 135 42 31 45 38 11 24 2 4 11 9 5 30 8
171 383 461 558 604 581 581 500 1 0 0 0 0 12 38 80 88 178 178 172 143 95 57 109 75 74 64 111 131 109 86 144 83 66 39 6 3 6 9 4 2 10 2
418 307 330 426 533 668 686 623 813 189 4 19 47 102 195 170 171 216 242 303 212 141 129 107 175 118 150 66 119 130 168 127 134 49 3 0 0 1 1 1 0 0 1
306 240 207 176 375 409 490 422 516 203 154 156 194 286 210 170 124 35 0 0 0 0 0 11 111 43 24 19 15 56 107 22 2 0 0 0 0 0 0 0 0 0 0
266 197 143 117 297 312 316 279 241 271 231 174 185 179 134 51 10 0 8 0 3 23 17 37 22 16 16 14 3 0 0 0 0 0 0 0 0 0 0 0 0 0 0
326 187 177 70 308 400 317 264 208 172 135 74 51 50 18 3 2 0 4 8 20 13 2 1 1 0 1 0 0 0 0 0 0 0 0 0 0 0 0 0 0 0 0
410 251 234 193 182 185 157 207 221 182 130 74 37 26 11 1 1 1 2 1 1 0 0 0 0 0 0 0 0 0 0 0 0 0 0 0 0 0 0 0 0 0 1
405 422 321 225 148 59 38 47 58 63 50 12 2 0 1 1 2 2 2 0 0 0 0 0 0 0 0 0 0 0 0 0 0 0 0 2 7 4 3 1 6 6 14
206 386 336 217 24 0 0 1 1 2 13 12 6 2 3 3 2 0 0 0 0 0 0 0 0 0 0 0 0 0 0 0 0 0 0 0 0 0 7 1 3 3 3
51 134 263 178 0 0 1 2 3 6 36 0 4 4 2 0 0 0 0 0 0 0 0 0 0 0 0 0 0 0 0 0 0 0 0 0 0 0 0 4 8 10 13
11 25 155 11 0 0 1 1 2 8 3 2 0 0 0 0 0 0 0 0 0 0 0 0 0 0 0 0 0 0 0 0 0 0 0 0 0 0 0 0 0 0 0
7 3 18 1 0 0 2 3 3 1 0 2 0 0 0 0 0 0 0 0 0 0 0 0 0 0 0 0 0 0 0 0 0 0 0 0 0 0 0 0 0 0 0
1 60 2 0 3 1 0 0 0 0 0 0 0 0 0 0 0 0 0 0 0 0 0 0 0 0 0 0 0 0 0 0 0 0 0 0 0 0 0 0 0 0 0
3 14 2 0 0 0 0 0 0 0 0 0 0 0 1 0 0 0 0 0 0 0 0 0 0 0 0 0 0 0 0 0 0 0 0 0 0 0 0 0 0 0 0
8 19 2 0 0 0 0 0 0 0 0 2 4 18 35 26 1 0 0 0 0 0 0 0 0 0 0 0 0 0 0 0 0 0 0 0 0 0 0 0 0 0 0
20 3 2 0 0 0 1 0 0 6 2 4 4 8 13 25 24 6 0 0 0 0 0 0 0 0 0 0 0 0 0 0 0 0 0 0 0 0 0 0 0 0 0
2 1 1 1 2 1 1 2 2 7 6 0 1 14 20 8 11 0 0 0 0 0 0 0 0 0 0 0 0 0 0 0 0 0 0 0 0 0 0 0 0 0 0
5 3 5 7 2 0 0 0 4 0 3 11 11 0 3 1 0 0 0 0 0 0 0 0 0 0 0 0 0 0 0 0 0 0 0 0 0 0 0 0 0 0 0
3 2 5 13 10 0 0 1 12 16 11 8 0 1 0 0 0 0 0 0 0 0 0 0 0 0 0 0 0 0 0 0 0 0 0 0 0 0 0 0 0 0 0
24 37 35 32 39 35 28 28 26 33 22 6 1 0 0 0 0 0 0 0 0 0 0 0 0 0 0 0 0 0 0 0 0 1 3 2 0 0 0 0 0 0 0
16 23 31 38 22 18 42 56 10 20 47 39 12 0 0 0 0 1 0 0 0 0 0 0 0 0 0 0 0 0 0 0 0 0 0 0 0 0 0 0 0 0 0
CIN
-361 -456 -486 -500 -568 0 -3 -602 -578 -568 0 0 0 0 0 0 0 0 0 0 0 0 -233 -140 -137 -75 -40 -30 -19 -59 -89 -76 -39 -41 -17 -31 -39 -42 -37 -52 -59 -76 0
-324 -372 -427 -454 -496 -493 -586 -625 0 -562 -137 0 0 0 0 0 -408 -47 0 0 0 0 -256 -183 -134 -82 -46 -46 -60 -99 -69 -62 -71 -28 -19 -3 -11 -41 -48 -69 -120 -136 -126
-316 -312 -320 -359 -457 -494 -498 -295 -301 0 0 0 -266 -137 0 -321 0 0 0 -267 0 0 -318 -197 -131 -101 -83 -65 -88 -184 -64 -42 -52 -28 -10 -20 -17 -69 -65 -58 -76 -129 -157
0 -443 -378 -341 -349 -389 -504 0 -566 0 0 0 0 -473 -470 -548 -554 -506 -474 -462 -448 -419 -307 -200 -109 -79 -101 -91 -97 -125 -105 -8 -53 -38 -37 -29 -20 -18 -12 -43 -46 -38 -78
-628 -555 -554 -588 -45 0 -518 0 -177 0 0 0 0 -809 -702 -619 -628 -625 -562 -519 -441 -359 -265 -196 -140 -68 -38 -39 -91 -79 -87 0 -41 -14 -23 -42 -2 -5 -1 -8 -36 -63 -21
-116 -773 -719 -660 -631 -653 -238 0 0 0 0 0 -296 -864 -770 -684 -668 -607 -585 -559 -522 -414 -384 -301 -236 -175 -137 -54 -33 -35 -49 -22 -4 -6 -30 -28 -5 0 -5 -3 -12 -30 -28
-692 -651 -641 -609 -618 -650 -664 -655 -370 0 0 0 0 -858 -803 -730 -622 -498 -430 -370 -321 -271 -207 -170 -139 -107 -121 -73 -33 -8 -33 -1 -1 -5 -26 -19 0 -46 -10 -2 -1 -8 -33
-499 -573 -589 -564 -585 -581 -607 -618 -505 -668 -761 -847 -822 -749 -626 -603 -527 -417 -318 -232 -191 -189 -137 -105 -40 -85 -23 -44 -1 -6 0 0 -1 -3 -2 -1 0 0 0 0 0 0 0
-468 -522 -551 -596 -520 -553 -548 -608 -551 -662 -708 -689 -650 -535 -540 -529 -530 -471 0 0 0 0 0 -194 -27 -3 -42 -41 -66 -1 0 -37 -45 0 0 0 0 0 0 0 0 0 0
-385 -440 -511 -581 -471 -490 -503 -541 -567 -557 -606 -628 -574 -528 -511 -556 -597 0 -160 0 -52 -229 -248 -114 0 0 -1 -10 -4 0 0 0 0 0 0 0 0 0 0 0 0 0 0
-316 -393 -421 -550 -398 -360 -407 -458 -516 -553 -565 -585 -573 -507 -498 -319 -159 0 -127 -236 -266 -105 0 0 0 0 0 0 0 0 0 0 0 0 0 0 0 0 0 0 0 0 0
-260 -338 -347 -402 -419 -438 -462 -437 -426 -454 -476 -473 -451 -418 -361 -20 0 0 0 0 0 0 0 0 0 0 0 0 0 0 0 0 0 0 0 0 0 0 0 0 0 -2 -33
-223 -228 -264 -310 -372 -441 -469 -456 -411 -400 -403 -418 0 0 0 0 0 0 0 0 0 0 0 0 0 0 0 0 0 0 0 0 0 0 0 -26 -20 -24 -27 -5 -27 -24 -17
-245 -170 -191 -226 -182 0 0 0 -1 -1 -309 -307 -186 -1 0 0 0 0 0 0 0 0 0 0 0 0 0 0 0 0 0 0 0 0 0 0 0 -1 -1 -1 -1 -1 -2
-281 -214 -156 -170 0 0 0 0 -103 -99 -209 -1 0 0 0 0 0 0 0 0 0 0 0 0 0 0 0 0 0 0 0 0 0 0 0 0 0 0 0 -1 -1 -1 -1
-297 -244 -155 -227 0 0 0 0 -2 -53 -101 -133 0 0 0 0 0 0 0 0 0 0 0 0 0 0 0 0 0 0 0 0 0 0 0 0 0 0 0 0 0 0 0
-162 -1 -142 -1 0 0 0 0 0 0 0 -183 0 0 0 0 0 0 0 0 0 0 0 0 0 0 0 0 0 0 0 0 0 0 0 0 0 0 0 0 0 0 0
-13 -158 0 0 0 0 0 0 0 0 0 0 0 0 0 0 0 0 0 0 0 0 0 0 0 0 0 0 0 0 0 0 0 0 0 0 0 0 0 0 0 0 0
-2 -1 -6 0 0 0 0 0 0 0 0 0 0 -7 -35 0 0 0 0 0 0 0 0 0 0 0 0 0 0 0 0 0 0 0 0 0 0 0 0 0 0 0 0
-14 -1 0 0 0 0 0 0 0 0 -3 -33 -45 -46 -46 -44 -5 -7 0 0 0 0 0 0 0 0 0 0 0 0 0 0 0 0 0 0 0 0 0 0 0 0 0
-3 -21 -23 0 0 0 -6 -9 -2 -15 -33 -54 -57 -48 -50 -48 -51 -56 0 0 0 0 0 0 0 0 0 0 0 0 0 0 0 0 0 0 0 0 0 0 0 0 0
-8 -6 0 0 -11 0 -19 -7 0 -25 -15 -18 -12 -43 -37 -50 -59 0 0 0 0 0 0 0 0 0 0 0 0 0 0 0 0 0 0 0 0 0 0 0 0 0 0
0 0 -9 0 0 0 0 -2 -21 0 -21 -28 -40 0 -48 -12 -5 0 0 0 0 0 0 0 0 0 0 0 0 0 0 0 0 0 0 0 0 0 0 0 0 0 0
-3 0 -6 -3 -1 0 -6 -3 -19 -32 -40 -42 -8 -33 0 -2 0 0 0 0 0 0 0 0 0 0 0 0 0 0 0 0 0 0 -3 0 0 0 0 0 0 0 0
0 -1 -6 -6 -1 -3 -4 -18 -18 -17 -21 -51 -17 -22 0 -52 0 0 0 0 0 0 0 0 0 0 0 0 0 0 0 0 0 -9 -28 -9 0 -1 0 0 0 0 0
-11 -13 -8 -8 -30 -45 -25 -21 -44 -41 -16 -13 -53 0 0 0 -18 -30 0 0 0 0 0 0 0 0 0 0 0 0 0 0 0 0 0 -2 -3 0 0 0 0 0 0
Wind_Speed
9 12 16 18 17 17 16 17 17 17 14 13 11 10 10 7 6 5 5 5 5 5 6 7 7 7 5 5 10 12 19 22 24 25 22 16 11 12 10 15 18 15 13
11 3 7 13 16 16 17 16 15 13 14 13 10 6 2 5 5 5 7 7 7 7 8 9 10 10 9 9 11 13 16 18 26 29 26 20 16 18 16 16 20 19 18
6 5 2 5 10 9 12 14 14 12 11 11 8 6 8 10 10 9 10 10 11 11 11 12 13 14 13 14 12 13 15 20 17 25 26 20 21 20 20 19 18 19 18
28 19 12 5 5 5 8 11 13 11 12 10 10 10 11 12 11 11 12 12 13 14 14 15 17 18 19 18 18 16 16 17 19 17 15 20 25 23 28 20 18 19 19
22 22 23 22 24 27 16 8 7 8 10 11 12 12 14 13 13 15 15 15 15 16 17 18 22 24 26 26 20 19 19 21 19 19 23 22 25 25 26 23 19 16 20
22 22 22 22 24 25 26 22 15 10 8 9 10 11 12 13 16 18 19 19 19 19 19 17 20 23 28 29 24 22 24 26 21 17 19 17 22 13 15 18 22 19 20
22 23 24 23 24 25 26 25 21 15 11 8 9 8 8 10 14 18 20 20 20 20 17 13 13 16 25 23 27 26 31 15 20 18 15 14 11 18 16 18 14 17 18
22 22 23 23 23 24 24 24 24 20 17 14 14 13 13 15 14 16 18 18 18 21 23 19 21 17 14 24 22 23 17 23 22 23 17 19 23 19 17 14 13 16 21
22 23 23 23 24 24 25 25 24 21 20 19 18 17 16 15 16 16 17 18 20 22 23 25 19 15 14 16 24 24 23 19 19 19 18 17 17 17 16 14 14 16 18
22 23 23 24 25 26 26 25 24 23 23 22 21 20 18 17 17 17 19 21 22 23 24 22 18 18 16 15 17 18 19 17 16 16 15 16 17 18 17 17 17 18 18
22 23 24 26 26 27 27 26 26 25 25 24 22 20 18 18 19 19 19 22 23 22 22 22 22 22 21 19 20 20 18 18 18 17 18 18 19 20 18 19 19 19 23
21 23 25 26 27 27 28 28 27 26 25 24 23 21 20 20 19 20 19 19 20 21 22 22 23 22 21 19 21 19 19 18 19 19 20 22 21 21 21 22 22 21 23
23 24 25 26 27 27 28 28 27 26 24 23 23 22 21 20 20 19 19 19 20 21 22 22 22 21 20 19 21 19 21 21 21 21 21 22 23 23 23 24 25 26 26
24 24 25 25 26 27 28 26 25 24 23 22 22 21 20 19 19 19 20 20 21 21 21 22 22 22 22 21 21 20 22 22 22 23 24 25 26 26 26 25 25 26 27
24 26 26 25 26 26 24 24 22 22 22 21 20 20 19 19 19 19 19 20 20 21 21 22 22 22 23 22 22 22 23 24 25 25 25 26 25 26 26 26 27 27 28
24 26 25 23 24 24 22 21 21 21 19 19 18 18 18 17 18 18 19 20 20 21 22 22 22 23 23 24 24 23 24 25 25 25 25 24 25 26 27 26 26 26 28
26 26 23 22 21 21 21 21 20 18 18 18 18 16 17 17 17 17 18 19 20 21 21 22 23 23 24 24 24 24 25 25 26 26 26 25 26 27 26 26 27 26 26
26 24 21 22 21 19 19 17 17 18 18 18 17 16 17 17 17 17 18 19 19 20 20 21 22 23 24 24 25 25 26 27 27 27 26 26 26 27 26 26 26 26 27
24 21 19 19 18 17 17 18 16 17 16 17 16 17 16 17 17 17 18 18 19 19 20 21 21 22 23 24 24 25 27 28 28 27 28 27 27 27 27 27 27 29 30
24 16 16 17 17 17 17 17 16 17 18 17 15 16 17 17 17 17 17 17 18 19 19 20 21 22 23 23 24 25 26 27 27 27 27 28 28 28 29 28 29 30 30
20 18 17 18 18 16 15 16 16 16 17 17 17 17 19 18 18 17 16 16 17 18 19 20 21 21 22 24 25 25 23 24 25 25 26 27 27 27 26 26 28 14 10
19 19 19 19 18 17 16 16 16 17 17 17 17 18 19 19 19 18 16 15 16 18 18 19 19 20 21 22 23 22 21 20 21 23 23 23 24 26 28 26 24 8 15
20 20 20 20 20 20 19 17 16 15 15 15 15 16 18 18 18 17 16 16 16 17 17 18 19 18 19 20 20 19 18 16 16 17 19 20 21 24 24 27 28 22 25
20 20 21 20 19 19 18 16 14 13 13 14 14 15 16 18 17 16 16 15 16 16 17 17 17 18 18 19 19 18 16 16 14 15 17 19 20 21 23 27 29 27 26
18 19 20 20 19 18 17 17 16 14 14 14 13 14 16 17 17 16 16 16 16 16 16 15 16 16 17 19 18 16 16 16 16 15 17 18 21 22 22 24 26 28 29
18 19 19 19 19 19 18 17 16 14 11 12 12 13 15 18 18 18 17 18 17 16 16 16 15 15 15 13 12 15 18 18 17 17 17 19 20 22 21 20 24 26 27
Wind_Direction
139 154 171 175 177 182 183 186 186 186 181 181 182 190 199 197 201 208 214 227 248 274 290 298 305 311 302 309 335 333 323 324 323 309 304 306 306 308 307 303 299 299 290
326 15 143 172 184 189 193 194 197 194 196 197 199 203 249 232 252 263 260 262 272 282 285 284 294 297 300 307 318 319 316 324 322 296 300 305 303 306 304 300 294 291 291
209 313 286 179 184 197 205 207 208 209 213 218 229 260 295 310 308 272 267 275 279 283 287 287 291 301 296 298 299 302 303 312 328 302 292 300 300 308 307 303 298 294 290
290 312 316 298 240 251 228 221 220 226 227 233 236 247 256 262 269 289 299 292 291 290 292 296 298 299 299 293 295 297 299 310 316 316 293 288 303 297 295 301 303 300 296
317 313 310 313 308 303 314 301 253 252 245 251 252 257 252 265 287 304 303 305 305 301 301 302 304 305 303 300 291 291 292 290 308 305 307 301 296 291 280 288 293 300 298
326 326 327 323 316 317 315 316 316 309 298 287 272 274 277 283 299 307 308 307 306 304 303 300 302 304 304 300 296 298 293 292 296 306 303 301 308 286 279 281 286 286 292
338 341 336 334 329 324 321 324 326 328 333 333 327 316 308 310 310 315 319 318 315 312 306 301 310 310 308 305 296 302 295 287 305 312 309 296 299 302 288 283 284 289 295
354 351 351 351 349 349 344 336 335 338 344 347 345 340 336 335 335 332 334 336 339 339 337 333 327 324 326 321 308 306 321 326 321 317 325 332 322 322 318 306 304 299 297
358 360 358 356 356 355 351 349 349 353 355 355 356 354 354 356 354 357 1 0 356 350 348 343 356 4 359 337 313 320 326 342 340 342 345 0 359 5 360 355 331 323 303
3 2 1 357 1 1 358 357 357 356 1 1 1 358 2 4 7 358 353 356 356 354 355 2 10 13 15 11 351 5 7 7 6 6 360 358 3 355 347 337 326 320 319
357 358 357 355 1 2 358 359 1 2 3 3 2 5 7 2 359 359 359 355 357 3 10 12 14 15 15 22 22 23 22 15 16 11 1 352 348 346 348 338 331 326 306
354 352 351 351 353 355 354 357 356 358 359 360 360 2 1 0 0 359 3 13 18 24 25 25 27 24 27 26 22 21 18 7 359 352 346 341 342 342 341 335 333 327 322
344 346 348 350 352 353 353 355 355 356 6 8 11 13 13 17 22 25 28 31 31 26 28 30 28 27 24 20 16 12 7 358 355 352 350 345 342 341 337 334 328 324 321
340 341 344 347 350 351 354 359 3 5 9 14 14 14 14 20 26 31 33 33 34 35 33 29 27 25 23 18 11 4 1 2 360 355 350 344 342 338 336 335 333 331 328
339 340 341 345 344 347 355 359 3 2 10 13 14 20 24 29 31 29 31 36 34 33 32 32 28 24 20 14 9 3 357 355 353 352 351 351 352 350 347 342 339 336 333
341 339 342 350 349 351 356 1 2 4 9 13 15 21 28 29 29 30 32 32 33 32 32 28 25 19 15 9 5 1 357 355 354 354 358 0 358 356 355 353 351 347 340
340 342 347 352 353 355 358 357 1 12 15 15 14 20 24 25 24 26 28 26 25 25 24 24 20 18 14 10 10 12 12 10 6 2 359 358 355 353 353 354 353 354 354
341 348 351 351 351 355 3 11 12 15 14 12 15 17 20 22 24 23 21 22 26 24 21 17 19 22 22 25 28 27 22 17 13 12 12 12 9 6 5 4 3 1 0
342 348 357 4 7 10 11 13 11 13 14 15 17 13 19 26 28 25 22 21 28 23 22 21 24 28 31 34 33 32 28 28 28 29 25 23 20 17 16 15 10 5 358
351 4 7 8 7 4 9 14 10 13 11 13 26 31 31 29 27 25 27 28 27 30 26 26 37 39 40 37 31 29 32 30 30 34 34 25 24 20 16 17 12 6 360
11 24 20 14 12 16 17 19 18 22 27 32 34 33 32 28 26 24 29 38 32 26 33 43 38 37 35 30 27 31 38 34 34 33 32 32 31 32 28 25 19 302 42
21 24 27 24 21 19 23 25 36 42 41 47 38 37 31 29 24 31 35 29 35 47 46 42 41 42 44 35 34 36 39 44 42 38 36 39 38 33 25 28 30 50 50
30 31 34 36 38 38 38 37 34 44 49 38 21 24 27 16 20 38 55 60 55 48 47 43 46 54 48 39 39 45 53 60 59 55 47 42 38 30 32 22 18 36 30
37 39 39 40 42 38 36 38 36 33 26 24 32 31 30 40 32 43 47 56 59 56 64 64 58 53 46 41 36 39 52 55 61 54 46 40 38 38 35 18 8 13 22
41 44 41 42 43 43 41 30 19 23 18 20 29 36 39 39 41 46 49 70 69 80 72 67 57 52 45 37 42 46 44 48 45 48 46 43 37 36 36 30 22 8 9
47 44 45 42 37 35 31 26 20 21 27 33 43 59 53 46 52 59 68 42 49 54 42 40 46 48 49 54 60 50 36 35 42 40 43 43 42 38 39 43 33 20 15